Weather in Novosel'skoye

Russia / Kurgan Oblast     56°31′13″N   63°14′01″E
temp.,
°C
wind,
m/s
gust,
m/s
humid.,
%
clouds,
%
prec.,
mm/h
press.,
hPa
HPBL,
m
17 april, sat
sat1723:00+3ene36610 0.0 102889
02:00+1e36670 0.0 1028101
05:000sse33720 0.0 102861
08:00+3ssw23620 0.0 1027200
11:00+7wsw33460 0.0 1026781
14:00+10w45363 0.0 10241658
17:00+11w573657 0.0 10222012
20:00+8nw3554100 0.0 102062
18 april, sun
sun1823:00+5w386118 0.0 1019147
02:00+4wnw411735 0.0 1018251
05:00+3w513775 0.0 1017329
08:00+5nw712725 0.0 1017964
11:00+4nne91060100 0.1 10201597
14:00+3nne91039100 0.0 10242298
17:00+3nne893292 0.0 10272264
20:000nne58393 0.0 1030305
19 april, mon
mon1923:00−1ne49430 0.0 1032570
02:00−3ne47460 0.0 1034510
05:00−4nne36500 0.0 1035374
08:00−3nne56380 0.0 10371083
11:00−1nne56270 0.0 10371508
14:00+1nne56260 0.0 10361847
17:00+2nne45295 0.0 10361854
20:00−1ne11415 0.0 103610
20 april, tue
tue2023:00−1sw22430 0.0 103625
02:00−2wsw36481 0.0 1036127
05:00−2w49505 0.0 1036218
08:00+1w593868 0.0 1035471
11:00+5w683299 0.0 10331289
14:00+8wnw78295 0.0 10321548
17:00+9wnw68320 0.0 10301644
20:00+6wnw36500 0.0 103088
21 april, wed
wed2123:00+4wnw49595 0.0 1031142
02:00+2wnw48685 0.0 1031141
05:00+1nw48740 0.0 1032123
08:00+4nw47610 0.0 1032259
11:00+9nw45470 0.0 1032872
14:00+12nnw45394 0.0 10321365
17:00+13n33375 0.0 10321488
20:00+10ne22524 0.0 103310